Weather in Rochester

United States     43°10′59″N   77°37′16″W
temp.,
°C
wind,
m/s
gust,
m/s
humid.,
%
clouds,
%
prec.,
mm/h
press.,
hPa
HPBL,
m
18 may, tue
tue1823:00+14ssw335996 0.0 102520
02:00+12sw34795 0.0 102535
05:00+11wsw34777 0.0 102645
08:00+13wsw336937 0.0 102785
11:00+15nnw236889 0.0 1028366
14:00+16nw347044 0.0 1026675
17:00+17nw34680 0.0 1025660
20:00+17w35703 0.0 1025131
19 may, wed
wed1923:00+16wsw45683 0.0 102672
02:00+14wsw34640 0.0 102654
05:00+13wsw34680 0.0 102644
08:00+14wsw33680 0.0 102884
11:00+17nnw22670 0.0 1029299
14:00+16nne3273100 0.0 1028442
17:00+16n2171100 0.0 1027329
20:00+16e226799 0.0 102717
20 may, thu
thu2023:00+16sse2263100 0.0 102724
02:00+15s3381100 0.0 102727
05:00+15s2383100 0.0 102826
08:00+16s1278100 0.0 102973
11:00+19n1270100 0.0 1029360
14:00+20nnw3473100 0.0 1029615
17:00+17ne328193 0.1 1028154
20:00+16ene1193100 1.1 102816
21 may, fri
fri2123:00+15se119193 0.0 102810
02:00+16s2289100 0.0 102817
05:00+16ssw2293100 0.1 102819
08:00+16ssw2392100 0.4 102952
11:00+17sw1289100 0.0 102955
14:00+17se3489100 0.0 1028112
17:00+20s3576100 0.0 1026226
20:00+19s238598 0.3 102557
22 may, sat
sat2223:00+18sw3493100 0.3 102552
02:00+17ssw3694100 0.4 102389
05:00+16sw4895100 0.7 1021138
08:00+16wsw4790100 0.8 1021201
11:00+17wsw5997100 1.4 1020316
14:00+17wnw479398 1.8 1017317
17:00+17wnw589481 0.8 1016326
20:00+15wnw489737 1.1 1016189